Change the Weather History Date:

Saturday, August 17, 2013

  Actual Average Record
Temperature  
Mean Temperature 66 °F -  
Max Temperature 78 °F 83 °F 100 °F (1988)
Min Temperature 53 °F 60 °F 44 °F (2012)
Growing Degree Days 16 (Base 50)    
Moisture  
Dew Point 55 °F    
Average Humidity 68    
Maximum Humidity 94    
Minimum Humidity 44    
Precipitation  
Precipitation 0.00 in - - ()
Sea Level Pressure  
Sea Level Pressure 30.17 in    
Wind  
Wind Speed 4 mph (SSE)    
Max Wind Speed 16 mph    
Max Gust Speed 21 mph    
Visibility 10 miles    
Events      
Averages and records for this station are not official NWS values.
T = Trace of Precipitation, MM = Missing Value Source: NWS Daily Summary

Daily Weather History Graph

Daily Weather History Graph

Search for Another Location

Airport or City:

Trip Planner

Search our weather history database for the weather conditions in past years. The results will help you decide how hot, cold, wet, or windy it might be!

Date:

Astronomy

Aug. 17, 2013 Rise Set
Actual Time 6:27 AM CDT 8:20 PM CDT
Civil Twilight 5:56 AM CDT 8:51 PM CDT
Nautical Twilight 5:18 AM CDT 9:29 PM CDT
Astronomical Twilight 4:36 AM CDT 10:10 PM CDT
Moon 5:40 PM CDT (8/17) 2:27 AM CDT (8/17)
Length of Visible Light 14h 55m
Length of Day
13h 53m
Waxing Gibbous, 84% of the Moon is Illuminated
Aug 17
Waxing Gibbous
Aug 20
Full
Aug 28
Last Quarter
Sep 5
New
Sep 12
First Quarter

Hourly Weather History & Observations

Time (CDT) Temp. Dew Point Humidity Pressure Visibility Wind Dir Wind Speed Gust Speed Precip Events Conditions
12:13 AM 59.0 °F 55.4 °F 88% 30.19 in 10.0 mi Calm Calm - N/A   Clear
12:32 AM 59.0 °F 55.4 °F 88% 30.19 in 10.0 mi Calm Calm - N/A   Clear
12:52 AM 57.2 °F 53.6 °F 88% 30.19 in 10.0 mi Calm Calm - N/A   Clear
1:13 AM 59.0 °F 53.6 °F 82% 30.19 in 10.0 mi Calm Calm - N/A   Clear
1:32 AM 59.0 °F 53.6 °F 82% 30.19 in 10.0 mi SSE 3.5 mph - N/A   Clear
1:52 AM 57.2 °F 53.6 °F 88% 30.19 in 10.0 mi Calm Calm - N/A   Clear
2:13 AM 57.2 °F 53.6 °F 88% 30.19 in 10.0 mi Calm Calm - N/A   Clear
2:32 AM 55.4 °F 51.8 °F 88% 30.19 in 10.0 mi Calm Calm - N/A   Clear
2:52 AM 55.4 °F 53.6 °F 94% 30.19 in 10.0 mi Calm Calm - N/A   Clear
3:13 AM 53.6 °F 51.8 °F 94% 30.19 in 10.0 mi Calm Calm - N/A   Clear
3:32 AM 53.6 °F 51.8 °F 94% 30.19 in 10.0 mi Calm Calm - N/A   Clear
3:52 AM 53.6 °F 51.8 °F 94% 30.19 in 10.0 mi Calm Calm - N/A   Clear
4:13 AM 55.4 °F 53.6 °F 94% 30.20 in 10.0 mi SSE 3.5 mph - N/A   Clear
4:32 AM 55.4 °F 51.8 °F 88% 30.20 in 10.0 mi Calm Calm - N/A   Clear
4:52 AM 53.6 °F 51.8 °F 94% 30.20 in 10.0 mi Calm Calm - N/A   Clear
5:13 AM 53.6 °F 51.8 °F 94% 30.20 in 10.0 mi Calm Calm - N/A   Clear
5:32 AM 55.4 °F 51.8 °F 88% 30.20 in 10.0 mi Calm Calm - N/A   Clear
5:52 AM 53.6 °F 51.8 °F 94% 30.20 in 10.0 mi Calm Calm - N/A   Clear
6:13 AM 55.4 °F 51.8 °F 88% 30.20 in 10.0 mi SSE 3.5 mph - N/A   Clear
6:33 AM 55.4 °F 51.8 °F 88% 30.20 in 10.0 mi Calm Calm - N/A   Clear
6:52 AM 55.4 °F 51.8 °F 88% 30.20 in 10.0 mi South 3.5 mph - N/A   Clear
7:13 AM 57.2 °F 53.6 °F 88% 30.20 in 10.0 mi SSE 4.6 mph - N/A   Clear
7:33 AM 59.0 °F 53.6 °F 82% 30.20 in 10.0 mi SSE 4.6 mph - N/A   Clear
7:52 AM 60.8 °F 53.6 °F 77% 30.20 in 10.0 mi SSE 5.8 mph - N/A   Clear
8:13 AM 62.6 °F 55.4 °F 77% 30.20 in 10.0 mi South 5.8 mph - N/A   Clear
8:33 AM 64.4 °F 55.4 °F 73% 30.20 in 10.0 mi South 6.9 mph - N/A   Clear
8:52 AM 64.4 °F 55.4 °F 73% 30.20 in 10.0 mi South 6.9 mph - N/A   Clear
9:13 AM 68.0 °F 55.4 °F 64% 30.20 in 10.0 mi SSE 8.1 mph - N/A   Clear
9:33 AM 69.8 °F 55.4 °F 60% 30.20 in 10.0 mi South 8.1 mph - N/A   Clear
9:52 AM 71.6 °F 55.4 °F 57% 30.20 in 10.0 mi SSE 10.4 mph - N/A   Clear
10:12 AM 71.6 °F 53.6 °F 53% 30.20 in 10.0 mi South 12.7 mph 19.6 mph N/A   Clear
10:33 AM 73.4 °F 53.6 °F 50% 30.20 in 10.0 mi South 11.5 mph 16.1 mph N/A   Clear
10:52 AM 73.4 °F 53.6 °F 50% 30.19 in 10.0 mi South 11.5 mph 20.7 mph N/A   Clear
11:12 AM 75.2 °F 55.4 °F 50% 30.19 in 10.0 mi SSW 15.0 mph 18.4 mph N/A   Clear
11:33 AM 73.4 °F 53.6 °F 50% 30.19 in 10.0 mi South 13.8 mph - N/A   Clear
11:52 AM 75.2 °F 55.4 °F 50% 30.19 in 10.0 mi SSW 13.8 mph - N/A   Clear
12:12 PM 75.2 °F 55.4 °F 50% 30.18 in 10.0 mi South 13.8 mph 18.4 mph N/A   Clear
12:32 PM 75.2 °F 55.4 °F 50% 30.18 in 10.0 mi South 13.8 mph - N/A   Clear
12:52 PM 75.2 °F 55.4 °F 50% 30.17 in 10.0 mi South 10.4 mph 18.4 mph N/A   Clear
1:12 PM 75.2 °F 55.4 °F 50% 30.17 in 10.0 mi South 11.5 mph 18.4 mph N/A   Scattered Clouds
1:32 PM 77.0 °F 55.4 °F 47% 30.17 in 10.0 mi South 11.5 mph 16.1 mph N/A   Scattered Clouds
1:53 PM 78.8 °F 57.2 °F 47% 30.16 in 10.0 mi South 10.4 mph 19.6 mph N/A   Clear
2:12 PM 78.8 °F 55.4 °F 44% 30.16 in 10.0 mi SSW 16.1 mph 20.7 mph N/A   Scattered Clouds
2:32 PM 78.8 °F 55.4 °F 44% 30.16 in 10.0 mi SSE 9.2 mph - N/A   Scattered Clouds
2:53 PM 78.8 °F 55.4 °F 44% 30.15 in 10.0 mi SSE 11.5 mph 16.1 mph N/A   Scattered Clouds
3:12 PM 77.0 °F 55.4 °F 47% 30.15 in 10.0 mi South 10.4 mph 17.3 mph N/A   Mostly Cloudy
3:32 PM 75.2 °F 55.4 °F 50% 30.15 in 10.0 mi SSE 8.1 mph - N/A   Mostly Cloudy
3:53 PM 78.8 °F 57.2 °F 47% 30.14 in 10.0 mi South 10.4 mph - N/A   Scattered Clouds
4:12 PM 78.8 °F 55.4 °F 44% 30.14 in 10.0 mi South 12.7 mph - N/A   Clear
4:32 PM 77.0 °F 55.4 °F 47% 30.14 in 10.0 mi SSE 9.2 mph 16.1 mph N/A   Scattered Clouds
4:53 PM 78.8 °F 55.4 °F 44% 30.14 in 10.0 mi South 10.4 mph - N/A   Mostly Cloudy
5:12 PM 78.8 °F 55.4 °F 44% 30.14 in 10.0 mi South 11.5 mph - N/A   Scattered Clouds
5:32 PM 77.0 °F 55.4 °F 47% 30.14 in 10.0 mi SSE 10.4 mph - N/A   Scattered Clouds
5:53 PM 77.0 °F 55.4 °F 47% 30.14 in 10.0 mi SSE 10.4 mph 16.1 mph N/A   Scattered Clouds
6:12 PM 75.2 °F 55.4 °F 50% 30.13 in 10.0 mi South 9.2 mph - N/A   Clear
6:32 PM 75.2 °F 55.4 °F 50% 30.13 in 10.0 mi South 6.9 mph - N/A   Clear
6:53 PM 75.2 °F 57.2 °F 53% 30.12 in 10.0 mi SSE 3.5 mph - N/A   Clear
7:12 PM 75.2 °F 55.4 °F 50% 30.12 in 10.0 mi South 5.8 mph - N/A   Clear
7:32 PM 73.4 °F 57.2 °F 57% 30.12 in 10.0 mi South 4.6 mph - N/A   Clear
7:53 PM 73.4 °F 57.2 °F 57% 30.12 in 10.0 mi SSE 3.5 mph - N/A   Clear
8:12 PM 71.6 °F 57.2 °F 60% 30.12 in 10.0 mi SSE 4.6 mph - N/A   Clear
8:32 PM 69.8 °F 57.2 °F 64% 30.13 in 10.0 mi Calm Calm - N/A   Scattered Clouds
8:53 PM 68.0 °F 57.2 °F 68% 30.13 in 10.0 mi SSE 3.5 mph - N/A   Clear
9:12 PM 66.2 °F 57.2 °F 73% 30.13 in 10.0 mi SSE 4.6 mph - N/A   Clear
9:32 PM 66.2 °F 57.2 °F 73% 30.14 in 10.0 mi SSE 5.8 mph - N/A   Clear
9:53 PM 64.4 °F 57.2 °F 77% 30.14 in 10.0 mi SSE 3.5 mph - N/A   Clear
10:12 PM 64.4 °F 57.2 °F 77% 30.14 in 10.0 mi SE 4.6 mph - N/A   Clear
10:32 PM 64.4 °F 57.2 °F 77% 30.14 in 10.0 mi SSE 4.6 mph - N/A   Clear
10:53 PM 64.4 °F 57.2 °F 77% 30.14 in 10.0 mi SSE 6.9 mph - N/A   Clear
11:12 PM 62.6 °F 55.4 °F 77% 30.14 in 10.0 mi SSE 4.6 mph - N/A   Clear
11:32 PM 62.6 °F 55.4 °F 77% 30.13 in 10.0 mi SSE 3.5 mph - N/A   Clear
11:53 PM 62.6 °F 55.4 °F 77% 30.14 in 10.0 mi Calm Calm - N/A   Clear